Погода Конево

Поиск расширенной информации на нашем сайте:

Полезная информация:

Новости сайта



02.01.2020
Опубликован Долгосрочный прогноз погоды по городам России и ближнего зарубежья на январь 2020 года.
Карты: Прогноз на январь и февраль 2020 года, Сравнение прогнозируемой аномалии приземной температуры воздуха на январь 2020 года по разным моделям.




Погода Конево - сегодня

Время (UTC), дата Ветер
(°,м/с) 
Видим.   Явления Облачность Т
(°С)
Тd
(°С)
f(%) Тe
(°С)
Pmin
(гПа)
dP
(гПа)
Po
(мм)
O2
(г/м3)
Тmin Tmax R s Состояние
почвы
00 30.11.20 170 (Ю) 4000 м  дымка  10/10 210 м 
[St]
-4.2 -4.2 100 -5  1035.2  -1  767  314           
03 30.11.20 150 (ЮВ) 4000 м  слаб. ливневой снег  10/10 400 м кучево-дожд. 
[Cb cap]
-4 -4 100 -5  1034  -1.2  766  314  -6.2      14  равномерный
сухой снег
100% 
06 30.11.20 160 (Ю) 4000 м  слаб. ливневой снег  10/10 450 м кучево-дожд. 
[Cb cap]
-3.2 -3.2 100 -4  1033  -1  765  312           
09 30.11.20 170 (Ю) 10 км  {ливн. осадки}  10/10 360 м 
[St]
-1.4 -1.4 100 -2  1032  -0.9  764  310           
12 30.11.20 160 (Ю) 10 км  {ливн. осадки}  10/10 330 м 
[St]
-0.3 -0.4 99 -1  1030  -1.9  763  308           
15 30.11.20 170 (Ю) 10 км    10/10 330 м 
[St]
+0.1 -0.3 97 -2  1028  -1.9  761  307    +0.1  0.3     
18 30.11.20 180 (Ю) 4000 м  слаб. ливневой снег  10/10 400 м кучево-дожд. 
[Cb cap]
+0.1 +0.1 100 -2  1026.6  -1.4  760  306           
21 30.11.20 180 (Ю) 4{10}  4000 м  слаб. ливневой снег  10/10 400 м кучево-дожд. 
[Cb cap]
+0.1 +0 99 -2  1025.3  -1.2  759  306           
00 01.12.20 190 (Ю) н/о    н/о 
-0.2 -0.2 100 -3  1024.8  -0.5  759  306           
03 01.12.20 190 (Ю) 4000 м  слаб. ливневой снег  10/10 400 м кучево-дожд. 
[Cb cap]
-0.3 -0.3 100 -3  1024.6  -0.1  759  306  -0.3    15  равномерный
сухой снег
100% 
06 01.12.20 180 (Ю) 1000 м  сильн. снег{ливн. осадки}  10/10 200 м 
[Frnb|Ns]
-0.4 -0.4 100 -2  1024.6  0.1  759  306  -0.4         
09 01.12.20 200 (Ю) 4000 м  слаб. снег  10/10 330 м 
[Frnb|Ns]
-0.4 -0.5 99 -3  1024.7  0.1  759  306           
12 01.12.20 210 (ЮЗ) 4000 м  слаб. ливневой снег  10/8 600 м кучево-дожд., средняя 
[Cb cap|As op]
-0.8 -1.9 92 -4  1025  0.3  759  307           
15 01.12.20 210 (ЮЗ) 5{10}  10 км  в посл. час ливневой снег  10/8 480 м кучево-дожд., средняя 
[Cb cap|As op]
-0.6 -1.4 94 -4  1025.7  0.7  760  307    -0.1     
18 01.12.20 200 (Ю) 5{10}  10 км  позёмок{ливн. осадки}  10/10 330 м 
[St]
-0.5 -1.2 95 -4  1026.1  0.4  760  307           
21 01.12.20 200 (Ю) 4000 м  слаб. ливневой снег  10/10 400 м кучево-дожд. 
[Cb cap]
-0.6 -0.6 100 -4  1026.2  760  307           
00 02.12.20 210 (ЮЗ) 5{10}  4000 м  слаб. ливневой снег  10/10 480 м кучево-дожд. 
[Cb cap]
-0.4 -0.5 99 -3  1026.5  0.3  760  307           
03 02.12.20 230 (ЮЗ) 20000 м  позёмок{ливн. осадки}  10/5 300 м кучево-дожд., средняя 
[Cb cap|As op]
+0 -0.7 95 -2  1027.4  0.9  761  307  -0.7    16  равномерный
сухой снег
100% 
06 02.12.20 220 (ЮЗ) 4000 м  слаб. ливневой снег  10/10 400 м кучево-дожд. 
[Cb cap]
-0.1 -0.4 98 -2  1028.9  1.4  762  307           
09 02.12.20 220 (ЮЗ) 10 км    10/10 330 м 
[St]
+0.5 -0.1 96 -1  1030.1  1.3  763  307           
12 02.12.20 240 (ЮЗ) 10 км  {ливн. осадки}  10/10 300 м 
[St]
+0.5 +0.1 97 -1  1030.9  0.7  764  307           
15 02.12.20 210 (ЮЗ) 10 км    10/10 300 м 
[St]
+0.4 +0.1 98 -2  1031.6  0.7  764  307    +0.6       
18 02.12.20 210 (ЮЗ) 10 км    10/10 210 м 
[St]
+0.3 +0.1 99 -1  1032.2  0.6  765  308           
21 02.12.20 210 (ЮЗ) 4000 м  дымка  10/10 210 м 
[St]
-0.2 -0.2 100 -2  1032.9  0.7  765  309           
00 03.12.20 210 (ЮЗ) 4000 м  дымка  10/10 210 м 
[St]
-0.6 -0.6 100 -3  1033  0.1  765  309           
Время (UTC), дата Ветер
(°,м/с) 
Видим.   Явления Облачность Т
(°С)
Тd
(°С)
f(%) Тe
(°С)
Pmin
(гПа)
dP
(гПа)
Po
(мм)
O2
(г/м3)
Тmin Tmax R s Состояние
почвы

Для получения пояснительной информации подведите курсор к названию столбца.

ПОГОДА Конево - архив

Всё, что Вы хотите узнать о погоде Конево - удобно и подробно!

Выберите нужную дату (начиная с 1 января 2019* года) и нажмите кнопку "Найти".
Будут отображены архивные сводки погоды по пункту Конево, начиная с указанной даты.


Отображать данные в формате CSV (для использования в таблицах Excel)


Внимание! Наш архив погоды предназначен исключительно для личного некоммерческого использования в познавательных целях. Если Вам необходимы официальные справки о состоянии погоды (для производственных, юридических, коммерческих и т.п. целей), обращайтесь в органы Росгидромета.

*Примечание: данная дата относится к архиву по метеостанциям СССР (Россия, СНГ, Балтия).
Архив по метеостанциям Зарубежной Европы и Азии (кроме Китая) хранится 10 дней, по другим регионам земного шара (Китай, Африка, Америка, Австралия, Океания) - 1 день.

Конево - район местоположения метеостанции


Название, широта, долгота, высота метеостанции:
Конево 62.1°ш. 39.3°д. 100 м над ур. моря [Российская Федерация]

Дополнительная информация

В oтличие oт бoльшинства пoгoдных сайтoв мы публикуем пoдрoбную метеoинфoрмацию в детальнoм прoфессиoнальнoм фoрмате.

Характеристики температуры и влажнoсти вoздуха измеряются на высoте 2 м в тени вдали oт зданий и деревьев.
Скoрoсть ветра измеряется на высoте 10 м (на урoвне рoста челoвека скoрoсть ветра ниже в 1.5-2 раза). Если метеoстанция нахoдится в гoрoде или в лесу, тo скoрoсть ветра занижена на 2-4 м/с пo сравнению с oткрытым местoм. Скoрoсть ветра над акватoриями крупных рек и oзёр, а также на вершинах хoлмoв на 2-5 м/с выше, чем в oбычных услoвиях.
Атмoсфернoе давление в разных тoчках местнoсти мoжет значительнo oтличаться oт давления на метеoстанции, в зависимoсти oт услoвий рельефа (при пoдъёме на 10 м давление пoнижается примернo на 1 мм рт.ст.).